CZ-6A DEB, 61468

Orbit data source: Space-Track

CZ-6A DEB, 61468 is space debris in LEO originally from a launch on Tue, 06 Aug 2024 UTC launched from the Taiyaun Space Center, China (TSC). Debris objects in space refer to the collection of defunct objects orbiting the Earth. Examples of debris include non-operational satellites, rocket bodies, and fragments generated from explosions, collisions, or faulty payload assembly.

Not visible in the next 10 days
Identifier
61468, 2024-140AAA
Orbit
LEO
Country
Flag of CNCN / PRC
Related business
Manufacturer
SAST
Mission
Decayed spacecraft
Bus & Motor
Unknown
Mass
Unknown
Launch date (UTC)
2024-08-06 (1 year ago)
Launch vehicle
Unknown
Launch site
Taiyaun Space Center, China (TSC)
Object type
Payload
Rocket body
Debris
Shape & HBR
Unknown
Radar Cross Section
Small (<0.1 m²)

Expand to show TLE details & history
Last TLE update: 1 week ago

TLE from 1 week ago
0 CZ-6A DEB
1 61468U 24140AAA 25251.67622968  .03676979  14785-1  17818-1 0  9996
2 61468  89.1963 311.7375 0019770 304.9142  55.0281 15.85933378 55347
Epoch: 2025-09-08T16:13Z
TLE epoch observation values (Epoch: 2025-09-08T16:13:46.244Z)
Latitude
-0.00001°
Longitude
80.31688°
Altitude
309.418 km
Speed
7.727 km/s
True Right ascension
20h 46m 56s
True Declination
0° 00' 00"
Sunlit
Object was in full shadow at epoch
Visualization orbit readout
Latitude
Unknown
Longitude
Unknown
Altitude
Unknown
Speed
Unknown
Apparent Right ascension
Unknown
Apparent Declination
Unknown
Sunlit
N/A
Visualization observer readout
Local Sidereal Time
13:00:26
Azimuth
Unknown
Elevation
Unknown
Doppler factor
Unknown
Orbital elements
Apogee altitude
323.638 km
Perigee altitude
297.191 km
Semi-major axis
6,688.551 km
Eccentricity
0.00198
Inclination
89.1963°
RAAN
311.7375°
Arg. of periapsis
304.9142°
True anomaly
55.214°
Mean anomaly
55.0281°
Eccentric anomaly
55.12103°
Mean motion
3.96776 °/min
Orbital period
90.73 mins
BSTAR
0.017818
Loading maneuver chart data...
Computing Atmospheric mass density...
Loading historical data...
Loading historical data...
Loading historical data...
Loading historical data...
Loading historical data...
Loading historical data...
Loading historical data...

Documentation

Showing up to 5 results
|